Location: Karcze
(52.0945°N, 22.4786°E)
Time: 22:44:27
(UTC+00:00)

A-11 Canister half - Pass Details

Date: 02 August 2021
Orbit: 1515 x 1685 km, 47.2° (Epoch: 19 September)

Event Time Altitude Azimuth Distance (km) Brightness Sun altitude
Rises 18:33:25 0° 269° (W) 4,850 12.7 -2.8°
Reaches altitude 10° 18:36:32 10° 267° (W) 3,883 12.0 -3.2°
Maximum altitude 18:46:22 66° 188° (S) 1,800 9.3 -4.4°
Drops below altitude 10° 18:56:23 10° 110° (ESE) 3,949 10.6 -5.6°
Enters shadow 18:58:21 - 108° (ESE) 4,552 10.9 -5.9°
Sets 18:59:35 0° 107° (ESE) 4,936 - -6.0°
